Location: Beadle
(51.4667°N, 109.0000°W)
Time: 04:01:19
(UTC+00:00)

Altair - Pass Details

Date: 02 June 2022
Orbit: 1501 x 1682 km, 47.2° (Epoch: 30 June)

Event Time Altitude Azimuth Distance (km) Brightness Sun altitude
Rises 00:14:59 0° 258° (WSW) 4,840 11.3 26.2°
Reaches altitude 10° 00:18:05 10° 256° (WSW) 3,876 11.1 25.7°
Maximum altitude 00:27:58 70° 176° (S) 1,756 8.2 24.2°
Drops below altitude 10° 00:38:03 10° 96° (E) 3,947 9.1 22.7°
Sets 00:41:14 0° 94° (E) 4,933 9.6 22.2°
